{"data":{"norad_id":52459,"epoch":"2026-05-25T04:23:59.771616Z","epoch_age_seconds":52467,"freshness":"FRESH","line1":"1 52459U 22049J   26145.18333069 -.00000410  00000+0 -76568-5 0  9996","line2":"2 52459  53.2129  75.7269 0001372  83.6081 276.5067 15.08843367223795","mean_motion":15.08843367,"eccentricity":0.0001372,"inclination_deg":53.2129,"raan_deg":75.7269,"arg_perigee_deg":83.6081,"mean_anomaly_deg":276.5067,"bstar":-7.6568e-6,"rev_number":22379,"period_min":95.437341707849,"perigee_km":538.78396563387,"apogee_km":540.6822291886,"semimajor_km":6917.8700974112,"source":"CELESTRAK","updated_at":"2026-05-25T13:38:17.125686Z"}}